Home > Time Zones > World Clock > Weather > Iran > Ahvaz > Past weeks

Flag for Iran Weather past 2 weeks in Ahvaz, Iran

Now
61 °F

Fog.


Feels Like: 61 °F
Forecast: 53 / 65 °F
Wind: No wind

Location: Ahwaz

Current Time: Dec 21, 2014 at 7:35:35 PM

Latest Report: Dec 21, 2014 at 6:30 PM


Visibility: 2 mi

Pressure: 29.95 "Hg

Humidity: 88%

Dew point: 57 °F

Location of AhvazLocation

Historic Weather in Ahvaz — Graph

°F

Ahvaz temperature yesterday

Maximum temperature yesterday: 70 °F (at 2:00 PM)
Minimum temperature yesterday: 50 °F (at 2:30 AM)
Average temperature yesterday: 60 °F

Past Weeks' High & Low Weather Summary

 TemperatureHumidityPressure
High79 °F (Dec 14, 3:00 PM)100% (Dec 18, 12:30 AM)30.24 "Hg (Dec 18, 12:30 AM)
Low46 °F (Dec 14, 4:30 AM)28% (Dec 11, 3:30 PM)29.92 "Hg (Dec 21, 1:30 PM)
Average62 °F72%30.11 "Hg
* Reported Dec 6 6:30 PM — Dec 21 6:30 PM, Ahvaz, Weather by CustomWeather, © 2014

Note: Actual official high and low records may vary slightly from our data, if they occured in-between our weather recording intervals... More about our weather records

Advertising

Ahvaz weather history for previous 24 hours

 ConditionsComfort  
Time TempWeatherWind HumidityBarometerVisibility
6:30 PM
Dec 21
61 °FFog.No wind88%29.95 "Hg2 mi
6:00 PM63 °FHaze.5 mph77%29.95 "Hg2 mi
5:30 PM63 °FHaze.5 mph77%29.95 "Hg2 mi
4:30 PM64 °FPartly sunny.7 mph78%29.95 "Hg3 mi
3:30 PM66 °FPartly sunny.5 mph78%29.92 "Hg2 mi
2:30 PM64 °FPartly sunny.5 mph83%29.92 "Hg2 mi
2:00 PM64 °FFog.5 mph83%29.92 "Hg2 mi
1:30 PM64 °FMore clouds than sun.7 mph78%29.92 "Hg3 mi
1:00 PM66 °FMore clouds than sun.12 mph73%29.95 "Hg4 mi
12:30 PM66 °FMore clouds than sun.12 mph73%29.95 "Hg4 mi
12:00 PM66 °FScattered clouds.12 mph73%29.95 "Hg4 mi
11:30 AM66 °FScattered clouds.12 mph73%29.95 "Hg4 mi
11:00 AM64 °FBroken clouds.9 mph78%29.95 "Hg4 mi
10:30 AM64 °FMore clouds than sun.12 mph78%29.95 "Hg4 mi
10:00 AM64 °FMore clouds than sun.12 mph78%29.98 "Hg4 mi
9:30 AM64 °FMore clouds than sun.12 mph78%29.98 "Hg4 mi
9:00 AM64 °FMore clouds than sun.9 mph78%29.95 "Hg4 mi
8:30 AM64 °FMore clouds than sun.12 mph78%29.95 "Hg4 mi
8:00 AM63 °FMore clouds than sun.12 mph77%29.95 "Hg3 mi
7:30 AM63 °FMostly cloudy.9 mph77%29.95 "Hg4 mi
6:30 AM61 °FLight rain. Mostly cloudy.5 mph83%29.95 "Hg4 mi
5:30 AM61 °FPartly cloudy.5 mph83%29.95 "Hg4 mi
4:30 AM63 °FPartly cloudy.7 mph83%29.95 "Hg4 mi
3:30 AM63 °FPartly cloudy.5 mph83%29.98 "Hg4 mi
2:30 AM63 °FMostly cloudy.5 mph83%29.98 "Hg4 mi
1:30 AM63 °FLight rain. Mostly cloudy.7 mph77%29.98 "Hg4 mi
12:30 AM63 °FPartly cloudy.7 mph77%29.98 "Hg4 mi
11:55 PM
Dec 20
63 °FPartly cloudy.9 mph77%29.98 "Hg4 mi
11:30 PM63 °FPartly cloudy.9 mph77%29.98 "Hg4 mi
10:55 PM63 °FPartly cloudy.7 mph77%29.98 "Hg4 mi
10:30 PM63 °FPartly cloudy.9 mph77%29.98 "Hg4 mi
9:55 PM63 °FPartly cloudy.9 mph73%29.98 "Hg4 mi
9:30 PM64 °FPartly cloudy.9 mph68%29.98 "Hg4 mi
8:30 PM64 °FPassing clouds.9 mph68%30.01 "Hg4 mi
7:55 PM64 °FClear.12 mph68%30.01 "Hg4 mi
7:30 PM64 °FClear.9 mph68%30.01 "Hg4 mi
Weather by CustomWeather, © 2014

See weather overviewHow to use our weather pages